Little Women: LA

From Wikipedia, the free encyclopedia
Jump to navigation Jump to search
Little Women: LA
Little Women LA.jpg
Cast (l–r): Briana, Jasmine, Christy, Brittney, Tonya, Elena, Terra
GenreReality TV
Starring
Opening themeTake Me Away by Clooney
Country of originUnited States
Original language(s)English
No. of seasons8
No. of episodes138 (list of episodes)
Production
Executive producer(s)
  • Kathleen Burns
  • Chris Coelen
  • Mary Donahue
  • Katie Griffin
  • Terra Jolé
  • Eli Lehrer
  • Karrie Wolfe
Camera setupMultiple
Running time42 minutes
Production company(s)Kinetic Content
DistributorA+E Networks
Release
Original networkLifetime
Picture format1080i (HDTV)
Original releaseMay 27, 2014 (2014-05-27) –
August 15, 2019 (2019-08-15)
External links
Website

Little Women: LA is an American reality television series that debuted on May 27, 2014, on Lifetime.[1] The series chronicles the lives of little women who are friends living in Los Angeles, California.

The show's success has resulted in several spin-offs, including Little Women: Terra's Little Family, Little Women: NY, Little Women: Atlanta and Little Women: Dallas.

Cast[edit]

Main cast Seasons
1 2 3 4 5 6 7 8 9
Terra Main
Tonya Main
Elena Main
Christy Main
Briana Main
Traci Main
Jasmine Main
Brittney Main Guest

Episodes[edit]

SeasonEpisodesOriginally aired
First airedLast aired
19May 27, 2014 (2014-05-27)July 22, 2014 (2014-07-22)
214January 1, 2015 (2015-01-01)April 1, 2015 (2015-04-01)
313July 29, 2015 (2015-07-29)October 21, 2015 (2015-10-21)
417January 27, 2016 (2016-01-27)May 18, 2016 (2016-05-18)
519July 13, 2016 (2016-07-13)November 16, 2016 (2016-11-16)
630February 28, 2017 (2017-02-28)September 13, 2017 (2017-09-13)
718March 21, 2018 (2018-03-21)July 25, 2018 (2018-07-25)
818April 4, 2019 (2019-04-04)August 15, 2019 (2019-08-15)

Season 1 (2014)[edit]

No. in
series
No. in
season
Title Original air date U.S. viewers
(million)
11"The "M" Word"May 27, 2014 (2014-05-27)0.82[2]
22"Little Women, Big Drama"June 3, 2014 (2014-06-03)0.90[3]
33"Who Do You Think You Are?"June 10, 2014 (2014-06-10)0.84[4]
44"The Ex-Factor"June 17, 2014 (2014-06-17)1.18[5]
55"Movin' On Up"June 24, 2014 (2014-06-24)N/A
66"She's Booty-ful"July 1, 2014 (2014-07-01)1.08[6]
77"Miss-Conception"July 8, 2014 (2014-07-08)1.36[7]
88"Sinner Takes All"July 15, 2014 (2014-07-15)1.27[8]
99"Here Comes the Bride"July 22, 2014 (2014-07-22)1.20[9]

Season 2 (2015)[edit]

No. in
series
No. in
season
Title Original air date U.S. viewers
(million)
101"Baby on Board"January 1, 2015 (2015-01-01)1.53[10]
112"Mama Drama"January 7, 2015 (2015-01-07)1.06[11]
123"Baby Bump"January 14, 2015 (2015-01-14)1.10[12]
134"A Little Fired Up"January 21, 2015 (2015-01-21)1.11[13]
145"Stage Fight"January 28, 2015 (2015-01-28)1.18[14]
156"The Ex-Files"February 4, 2015 (2015-02-04)1.29[15]
167"Pain in the Butt"February 11, 2015 (2015-02-11)1.38[16]
178"Into The Woods"February 18, 2015 (2015-02-18)1.23[17]
189"Home Wreckers"February 25, 2015 (2015-02-25)1.14[18]
1910"Little Women, Big Easy"March 4, 2015 (2015-03-04)1.19[19]
2011"New Orleans, New Engagement?"March 11, 2015 (2015-03-11)1.17[20]
2112"Friendtervention"March 18, 2015 (2015-03-18)1.34[21]
2213"Little Women: LA Reunion Special Part 1"March 25, 2015 (2015-03-25)1.13[22]
2314"Little Women: LA Reunion Special Part 2"April 1, 2015 (2015-04-01)1.21[23]

Season 3 (2015)[edit]

No. in
series
No. in
season
Title Original air date U.S. viewers
(million)
241"LA Safari"July 29, 2015 (2015-07-29)1.31[24]
252"Big Secrets"August 5, 2015 (2015-08-05)1.13[25]
263"Seattle or Bust"August 12, 2015 (2015-08-12)1.18[26]
274"A Group Divided"August 19, 2015 (2015-08-19)1.32[27]
285"Love and War"August 26, 2015 (2015-08-26)1.56[28]
296"Working Girls"September 2, 2015 (2015-09-02)1.32[29]
307"Friendship on the Rocks"September 9, 2015 (2015-09-09)1.30[30]
318"No Pain, No Gain"September 16, 2015 (2015-09-16)1.24[31]
329"Off to the Races"September 23, 2015 (2015-09-23)0.93[32]
3310"Bachelorette or Burst"September 30, 2015 (2015-09-30)0.99[33]
3411"Truth and Lies"October 7, 2015 (2015-10-07)1.05[34]
3512"Hawaiian Couples Retreat"October 14, 2015 (2015-10-14)1.07[35]
3613"Big Vow Renewal"October 21, 2015 (2015-10-21)1.05[36]

Season 4 (2016)[edit]

No. in
series
No. in
season
Title Original air date U.S. viewers
(million)
371"MotoCrossed"January 27, 2016 (2016-01-27)1.26[37]
382"Beauty Brawl"February 3, 2016 (2016-02-03)1.34[38]
393"Sour Apples"February 10, 2016 (2016-02-10)1.41[39]
404"Oh Baby!"February 17, 2016 (2016-02-17)1.33[40]
415"Couples Party Catastrophe"February 24, 2016 (2016-02-24)1.45[41]
426"Special Pizza Delivery"March 2, 2016 (2016-03-02)1.62[42]
437"Hostile Housewarming"March 9, 2016 (2016-03-09)1.42[43]
448"Cancun or Bust"March 16, 2016 (2016-03-16)1.36[44]
459"The Party Continues"March 23, 2016 (2016-03-23)1.50[45]
4610"Crossing the Line"March 30, 2016 (2016-03-30)1.22[46]
4711"Media Frenzy"April 6, 2016 (2016-04-06)1.06[47]
4812"Ride or Die Wedding"April 13, 2016 (2016-04-13)1.13[48]
4913"Baby Showers and Blindsides"April 20, 2016 (2016-04-20)1.43[49]
5014"Reunion Part 1"April 27, 2016 (2016-04-27)N/A
5115"Reunion Part 2"May 4, 2016 (2016-05-04)1.31[50]
5216"Matt and Briana - Part 1"May 11, 2016 (2016-05-11)1.04[51]
5317"Matt and Briana - Part 2"May 18, 2016 (2016-05-18)0.98[52]

Season 5 (2016)[edit]

No. in
series
No. in
season
Title Original air date U.S. viewers
(million)
541"Spa Day Sparring"July 13, 2016 (2016-07-13)1.13[53]
552"Drama & Drag Queens"July 20, 2016 (2016-07-20)1.20[54]
563"Lost and Found"July 27, 2016 (2016-07-27)1.46[55]
574"Twins and Tears"August 3, 2016 (2016-08-03)1.45[56]
585"Deconstructive Criticism"August 10, 2016 (2016-08-10)1.42[57]
596"Tough as Nails"August 17, 2016 (2016-08-17)1.38[58]
607"Wild West Showdown"August 24, 2016 (2016-08-24)1.50[59]
618"Pre-Pop Party"August 31, 2016 (2016-08-31)1.49[60]
629"Murder She Wrote"September 7, 2016 (2016-09-07)1.64[61]
6310"Plastic Problems"September 14, 2016 (2016-09-14)1.57[62]
6411"Birthday Blowout"September 21, 2016 (2016-09-21)1.41[63]
6512"Belly Dance Battle"September 28, 2016 (2016-09-28)1.45[64]
6613"Terra's Growing Family"October 5, 2016 (2016-10-05)1.47[65]
6714"Name Game"October 12, 2016 (2016-10-12)1.55[66]
6815"High Stakes Friendship"October 19, 2016 (2016-10-19)1.36[67]
6916"Playing With Fire"October 26, 2016 (2016-10-26)1.34[68]
7017"Sail Away"November 2, 2016 (2016-11-02)1.23[69]
7118"Reunion, Part 1"November 9, 2016 (2016-11-09)1.07[70]
7219"Reunion, Part 2"November 16, 2016 (2016-11-16)1.18[71]

Season 6 (2017)[edit]

No. in
series
No. in
season
Title Original air date U.S. viewers
(million)
731"Ballroom Blitz"February 28, 2017 (2017-02-28)0.91[72]
742"Tough Crowd"March 7, 2017 (2017-03-07)0.88[73]
753"Things Fall Apart"March 14, 2017 (2017-03-14)0.99[74]
764"On Thin Ice"March 21, 2017 (2017-03-21)0.95[75]
775"The Girl Who Cried Divorce"March 28, 2017 (2017-03-28)1.06[76]
786"Vision Quest"April 4, 2017 (2017-04-04)0.95[77]
797"Big Little Lies"April 4, 2017 (2017-04-04)1.01[77]
808"March Madness"April 11, 2017 (2017-04-11)0.97[78]
819"Bringing Sexy Back"April 18, 2017 (2017-04-18)0.93[79]
8210"Model Behavior"April 25, 2017 (2017-04-25)0.92[80]
8311"Shady Business"May 2, 2017 (2017-05-02)1.01[81]
8412"Baptism Blowout"May 9, 2017 (2017-05-09)1.02[82]
8513"Fractured Friendships"May 16, 2017 (2017-05-16)0.94[83]
8614"Big Trouble, Little Video"May 23, 2017 (2017-05-23)0.88[84]
8715"Fierce Fight"May 31, 2017 (2017-05-31)1.10[85]
8816"Warrior Dash"June 7, 2017 (2017-06-07)1.10[86]
8917"Alaska Adventure"June 14, 2017 (2017-06-14)1.12[87]
9018"Interventions and Infidelity"June 21, 2017 (2017-06-21)1.04[88]
9119"Crazy in Love"June 28, 2017 (2017-06-28)1.22[89]
9220"'80s Prom"July 5, 2017 (2017-07-05)1.09[90]
9321"Season 6 Reunion: Part 1"July 12, 2017 (2017-07-12)1.17[91]
9422"Season 6 Reunion: Part 2"July 19, 2017 (2017-07-19)1.16[92]
9523"Couples Retreat: Trouble in Paradise"July 26, 2017 (2017-07-26)0.87[93]
9624"Couples Retreat: Express Yourself"August 2, 2017 (2017-08-02)1.14[94]
9725"Couples Retreat: Breakfast Beef"August 9, 2017 (2017-08-09)0.80[95]
9826"Couples Retreat: Don't Poke the Bear"August 16, 2017 (2017-08-16)0.88[96]
9927"Couples Retreat: Busting Up"August 23, 2017 (2017-08-23)0.98[97]
10028"Couples Retreat: Twin Explosions"August 30, 2017 (2017-08-30)0.93[98]
10129"Couples Retreat: Flight or Fight"September 6, 2017 (2017-09-06)0.85[99]
10230"Couples Retreat: Girls on Top"September 13, 2017 (2017-09-13)0.86[100]

Season 7 (2018)[edit]

No. in
series
No. in
season
Title Original air date U.S. viewers
(million)
1031"Lucky 7"March 21, 2018 (2018-03-21)0.79[101]
1042"The Boss is Back"March 28, 2018 (2018-03-28)0.71[102]
1053"The Blame Game"April 4, 2018 (2018-04-04)0.75[103]
1064"Sour Grapes"April 11, 2018 (2018-04-11)0.70[104]
1075"Injections And Rejections"April 18, 2018 (2018-04-18)0.79[105]
1086"Backstabbing Beauties"April 25, 2018 (2018-04-25)0.82[106]
1097"Sober Celebration"May 2, 2018 (2018-05-02)0.70[107]
1108"Sundae Funday"May 9, 2018 (2018-05-09)0.64[108]
1119"Lil Panty Droppers"May 16, 2018 (2018-05-16)0.77[109]
11210"Get Happy"May 23, 2018 (2018-05-23)0.64[110]
11311"The Ultimatum"May 30, 2018 (2018-05-30)0.76[111]
11412"Stage Fright And Heartache"June 6, 2018 (2018-06-06)0.73[112]
11513"Extreme Therapy"June 13, 2018 (2018-06-13)0.76[113]
11614"Welcome to Solvang"June 20, 2018 (2018-06-20)0.70[114]
11715"Sideways in Solvang"June 27, 2018 (2018-06-27)0.75[115]
11816"Kicking And Screaming"July 11, 2018 (2018-07-11)0.80[116]
11917"Beauty And The Booze"July 18, 2018 (2018-07-18)0.72[117]
12018"Sins And The City"July 25, 2018 (2018-07-25)0.80[118]

Season 8 (2019)[edit]

No. in
series
No. in
season
Title Original air date U.S. viewers
(million)
1211"Uphill Battle"April 4, 2019 (2019-04-04)0.58[119]
1222"Rollin' with the Homies"April 11, 2019 (2019-04-11)0.71[120]
1233"Ghost, Guns, Girls Trip"April 18, 2019 (2019-04-18)0.59[121]
1244"Hoarders and Performers"April 25, 2019 (2019-04-25)0.59[122]
1255"Little Issues"May 2, 2019 (2019-05-02)0.62[123]
1266"Marriage on the Rocks"May 9, 2019 (2019-05-09)0.61[124]
1277"Chili Dog Dreams"May 16, 2019 (2019-05-16)0.58[125]
1288"Hen Party Fiasco"May 23, 2019 (2019-05-23)0.70[126]
1299"I Do's and Don'ts"July 11, 2019 (2019-07-11)0.70[127]
13010"Social Media Intervention"July 18, 2019 (2019-07-18)0.77[128]
13111"Meddling Queen"July 25, 2019 (2019-07-25)0.54[129]
13212"The Snowball Effect"July 25, 2019 (2019-07-25)0.57[129]
13313"Russian Roulette"August 1, 2019 (2019-08-01)0.59[130]
13414"Truth and Dare"August 1, 2019 (2019-08-01)0.57[130]
13515"Totally Shady"August 8, 2019 (2019-08-08)0.64[131]
13616"Barring It All"August 8, 2019 (2019-08-08)0.66[131]
13717"Big Little Retreat"August 15, 2019 (2019-08-15)0.65[132]
13818"The End of an Era"August 15, 2019 (2019-08-15)0.72[132]

References[edit]

  1. ^ "Lifetime's All-New Docu-Series "Little Women: LA" Premieres Monday, June 2". The Futon Critic (Press release). Futon Media. April 4, 2014. Retrieved September 14, 2015.
  2. ^ "Tuesday's Cable Ratings and Broadcast Finals: 5-27-14". The Futon Critic.
  3. ^ Kondolojy, Amanda (June 4, 2014). "Tuesday Cable Ratings: 'Deadliest Catch' Leads Night + '19 Kids and Counting', 'The Haves and the Have Nots', 'The Little Couple' & More". TV by the Numbers. Retrieved June 4, 2014.
  4. ^ Bibel, Sara (June 11, 2014). "Tuesday Cable Ratings: 'Pretty Little Liars' & 'Deadliest Catch' Win Night, 'Fargo', 'Royal Pains', 'Chasing Life', 'Faking It' & More". TV by the Numbers. Retrieved June 11, 2014.
  5. ^ Kondolojy, Amanda (June 18, 2014). "Tuesday Cable Ratings: World Cup Soccer Leads Night + 'Deadliest Catch', 'Rizzoli & Isles', 'The Haves & the Have Nots', 'Pretty Little Liars' & More". TV by the Numbers. Retrieved June 18, 2014.
  6. ^ Kondolojy, Amanda (July 2, 2014). "Tuesday Cable Ratings: World Cup Coverage Wins Night + 'Deadliest Catch', 'Rizzoli & Isles', 'The Haves and the Have Nots' & More". TV by the Numbers. Archived from the original on July 3, 2014. Retrieved July 2, 2014.
  7. ^ Bibel, Sara (July 9, 2014). "Tuesday Cable Ratings: World Cup Wins Night, 'Rizzoli & Isles', 'Pretty Little Liars', 'Finding Carter', 'Perception', 'Tyrant' & More". TV by the Numbers. Archived from the original on July 12, 2014. Retrieved July 9, 2014.
  8. ^ Kondolojy, Amanda (July 16, 2014). "Tuesday Cable Ratings: 'Deadliest Catch' & 'Pretty Little Liars' Top Night + 'The Haves & The Have Nots', 'Rizzoli & Isles' & More". TV by the Numbers. Archived from the original on July 19, 2014. Retrieved July 16, 2014.
  9. ^ Bibel, Sara (July 23, 2014). "Tuesday Cable Ratings: 'Deadliest Catch', 'Rizzoli & Isles' & 'Pretty Little Liars' Win Night; 'The Haves & The Have Nots', 'Tyrant' & More". TV by the Numbers. Archived from the original on July 29, 2014. Retrieved July 23, 2014.
  10. ^ Bibel, Sara (January 7, 2015). "Thursday Cable Ratings: College Football Wins Night, 'Little Women LA', 'The First 48' & More". TV by the Numbers. Retrieved January 7, 2015.
  11. ^ Bibel, Sara (January 9, 2015). "Wednesday Cable Ratings: 'American Horror Story' Wins Night, 'Duck Dynasty', 'Wahlburgers', 'Mob Wives', 'Little Women LA' & More". TV by the Numbers. Retrieved January 9, 2015.
  12. ^ Kondolojy, Amanda (January 16, 2015). "Wednesday Cable Ratings: 'American Horror Story' Wins Night + 'The Game', 'Duck Dynasty', 'Workaholics' & More". TV by the Numbers. Retrieved January 16, 2015.
  13. ^ Bibel, Sara (January 22, 2015). "Wednesday Cable Ratings: 'American Horror Story' Wins Night, 'Duck Dynasty', 'The Game', 'Broad City','Melissa & Joey' & More". TV by the Numbers. Retrieved January 22, 2015.
  14. ^ Kondolojy, Amanda (January 29, 2015). "Wednesday Cable Ratings: 'Duck Dynasty' Tops Night + 'The Game', 'Wahlburgers', 'Conan', 'The Americans' & More". TV by the Numbers. Retrieved January 29, 2015.
  15. ^ Bibel, Sara (February 5, 2015). "Wednesday Cable Ratings: 'Duck Dynasty' Wins Night, 'Snooki & J Woww', 'Broad City', 'The Americans' & More". TV by the Numbers. Retrieved February 5, 2015.
  16. ^ Kondolojy, Amanda (February 12, 2015). "Wednesday Cable Ratings: 'Duck Dynasty' Tops Night + 'The Game', 'Wahlburgers' NBA Basketball & More". TV by the Numbers. Retrieved February 12, 2015.
  17. ^ Bibel, Sara (February 19, 2015). "Wednesday Cable Ratings: College Basketball Wins Night, 'Workaholics', 'Dual Survivor', 'American Pickers', 'Little Women L.A.' & More". TV by the Numbers. Retrieved February 19, 2015.
  18. ^ Kondolojy, Amanda (February 26, 2015). "Wednesday Cable Ratings: 'Catfish' Tops Night + 'Mob Wives', 'The Game', 'House Hunters' & More". TV by the Numbers. Retrieved February 26, 2015.
  19. ^ Bibel, Sara (March 5, 2015). "Wednesday Cable Ratings: 'The Game' & ' Dual Survival' Win Night, 'Catfish', 'Conan', Mob Wives' & More". TV by the Numbers. Retrieved March 5, 2015.
  20. ^ Kondolojy, Amanda (March 12, 2015). "Wednesday Cable Ratings: 'Dual Survival' & NBA Basketball Top Night, + 'Catfish', 'Mob Wives' & More". TV by the Numbers. Retrieved March 12, 2015.
  21. ^ Bibel, Sara (March 19, 2015). "Wednesday Cable Ratings: 'Catfish' Wins Night, NBA Basketball, 'Dual Survivor', 'Little Women LA','Mob Wives', 'Broad City' & More". TV by the Numbers. Retrieved March 19, 2015.
  22. ^ Kondolojy, Amanda (March 26, 2015). "Wednesday Cable Ratings: 'Catfish' Tops Night + 'Workaholics', NBA Basketball, 'The Daily Show' & More". TV by the Numbers. Retrieved March 26, 2015.
  23. ^ Bibel, Sara (April 2, 2015). "Wednesday Cable Ratings: 'Catfish' & 'Dual Survival' Win Night, 'Little Women LA', 'Workaholics' & More". TV by the Numbers. Retrieved April 2, 2015.
  24. ^ Metcalf, Mitch (July 30, 2015). "SHOWBUZZDAILY's Top 100 Wednesday Cable Originals(&Network Update):7.29.2015". Showbuzzdaily. Retrieved July 30, 2015.
  25. ^ Metcalf, Mitch (August 6, 2015). "SHOWBUZZDAILY's Top 100 Wednesday Cable Originals(&Network Update):8.5.2015". Showbuzzdaily. Retrieved August 6, 2015.
  26. ^ Metcalf, Mitch (August 13, 2015). "SHOWBUZZDAILY's Top 100 Wednesday Cable Originals(&Network Update):8.12.2015". Showbuzzdaily. Retrieved August 13, 2015.
  27. ^ Metcalf, Mitch (August 20, 2015). "SHOWBUZZDAILY's Top 100 Wednesday Cable Originals(&Network Update):8.19.2015". Showbuzzdaily. Retrieved August 20, 2015.
  28. ^ Metcalf, Mitch (August 27, 2015). "SHOWBUZZDAILY's Top 100 Wednesday Cable Originals(&Network Update):8.26.2015". Showbuzzdaily. Retrieved August 27, 2015.
  29. ^ Metcalf, Mitch (September 3, 2015). "SHOWBUZZDAILY's Top 100 Wednesday Cable Originals(&Network Update):9.2.2015". Showbuzzdaily. Archived from the original on September 4, 2015. Retrieved September 4, 2015.
  30. ^ Metcalf, Mitch (September 10, 2015). "SHOWBUZZDAILY's Top 100 Wednesday Cable Originals(&Network Update):9.9.2015". Showbuzzdaily. Retrieved September 10, 2015.
  31. ^ Metcalf, Mitch (September 17, 2015). "SHOWBUZZDAILY's Top 100 Wednesday Cable Originals(&Network Update):9.16.2015". Showbuzzdaily. Retrieved September 17, 2015.
  32. ^ Metcalf, Mitch (September 24, 2015). "SHOWBUZZDAILY's Top 100 Wednesday Cable Originals(&Network Update):9.23.2015". Showbuzzdaily. Retrieved September 24, 2015.
  33. ^ Metcalf, Mitch (October 1, 2015). "UPDATED: SHOWBUZZDAILY's Top 100 Wednesday Cable Originals & Network Update: 9.30.2015". Showbuzzdaily. Retrieved October 1, 2015.
  34. ^ Metcalf, Mitch (October 8, 2015). "UPDATED: SHOWBUZZDAILY's Top 100 Wednesday Cable Originals & Network Update: 10.7.2015". Showbuzzdaily. Retrieved October 8, 2015.
  35. ^ Metcalf, Mitch (October 15, 2015). "UPDATED: SHOWBUZZDAILY's Top 100 Wednesday Cable Originals & Network Update: 10.14.2015". Showbuzzdaily. Retrieved October 15, 2015.
  36. ^ Metcalf, Mitch (October 22, 2015). "UPDATED: SHOWBUZZDAILY's Top 100 Wednesday Cable Originals & Network Update: 10.21.2015". Showbuzzdaily. Retrieved October 22, 2015.
  37. ^ Metcalf, Mitch (January 28, 2016). "SHOWBUZZDAILY's Top 150 Wednesday Cable Originals & Network Update: 1.27.2016". Showbuzzdaily. Retrieved January 28, 2016.
  38. ^ Metcalf, Mitch (February 4, 2016). "SHOWBUZZDAILY's Top 150 Wednesday Cable Originals & Network Finals: 2.3.2016". Showbuzzdaily. Retrieved February 4, 2016.
  39. ^ Metcalf, Mitch (February 11, 2016). "SHOWBUZZDAILY's Top 150 Wednesday Cable Originals & Network Finals: 2.10.2016". Showbuzzdaily. Retrieved February 11, 2016.
  40. ^ Metcalf, Mitch (February 18, 2016). "SHOWBUZZDAILY's Top 150 Wednesday Cable Originals & Network Finals: 2.17.2016". Showbuzzdaily. Retrieved February 18, 2016.
  41. ^ Metcalf, Mitch (February 25, 2016). "SHOWBUZZDAILY's Top 150 Wednesday Cable Originals & Network Finals: 2.24.2016". Showbuzzdaily. Retrieved February 25, 2016.
  42. ^ Metcalf, Mitch (March 3, 2016). "SHOWBUZZDAILY's Top 150 Wednesday Cable Originals & Network Finals: 3.2.2016". Showbuzzdaily. Retrieved March 3, 2016.
  43. ^ Metcalf, Mitch (March 10, 2016). "SHOWBUZZDAILY's Top 150 Wednesday Cable Originals & Network Finals: 3.9.2016". Showbuzzdaily. Retrieved March 10, 2016.
  44. ^ Metcalf, Mitch (March 17, 2016). "SHOWBUZZDAILY's Top 150 Wednesday Cable Originals & Network Finals: 3.16.2016". Showbuzzdaily. Retrieved March 17, 2016.
  45. ^ Metcalf, Mitch (March 24, 2016). "SHOWBUZZDAILY's Top 150 Wednesday Cable Originals & Network Finals: 3.23.2016". ShowBuzzDaily. Retrieved March 24, 2016.
  46. ^ Metcalf, Mitch (March 31, 2016). "UPDATED: SHOWBUZZDAILY's Top 150 Wednesday Cable Originals & Network Finals: 3.30.2016". ShowBuzzDaily. Retrieved March 31, 2016.
  47. ^ Metcalf, Mitch (April 7, 2016). "UPDATED: SHOWBUZZDAILY's Top 150 Wednesday Cable Originals & Network Finals: 4.6.2016". ShowBuzzDaily. Retrieved April 7, 2016.
  48. ^ Metcalf, Mitch (April 14, 2016). "Updated: ShowBuzzDaily's Top 150 Wednesday Cable Originals & Network Finals: 4.13.2016". ShowBuzzDaily. Retrieved April 14, 2016.
  49. ^ Metcalf, Mitch (April 21, 2016). "Updated: ShowBuzzDaily's Top 150 Wednesday Cable Originals & Network Finals: 4.20.2016". ShowBuzzDaily. Retrieved April 21, 2016.
  50. ^ Metcalf, Mitch (May 5, 2016). "Updated: ShowBuzzDaily's Top 150 Wednesday Cable Originals & Network Finals: 5.4.2016". ShowBuzzDaily. Retrieved May 5, 2016.
  51. ^ Metcalf, Mitch (May 12, 2016). "Updated: ShowBuzzDaily's Top 150 Wednesday Cable Originals & Network Finals: 5.11.2016". ShowBuzzDaily. Retrieved May 12, 2016.
  52. ^ Metcalf, Mitch (May 19, 2016). "Updated: ShowBuzzDaily's Top 150 Wednesday Cable Originals & Network Finals: 5.18.2016". ShowBuzzDaily. Retrieved May 19, 2016.
  53. ^ Metcalf, Mitch (July 14, 2016). "Updated: ShowBuzzDaily's Top 150 Wednesday Cable Originals & Network Finals: 7.13.2016". ShowBuzzDaily. Retrieved July 14, 2016.
  54. ^ Metcalf, Mitch (July 21, 2016). "Updated: ShowBuzzDaily's Top 150 Wednesday Cable Originals & Network Finals: 7.20.2016". ShowBuzzDaily. Retrieved July 21, 2016.
  55. ^ Metcalf, Mitch (July 28, 2016). "Updated: ShowBuzzDaily's Top 150 Wednesday Cable Originals & Network Finals: 7.27.2016". ShowBuzzDaily. Retrieved July 28, 2016.
  56. ^ Metcalf, Mitch (August 4, 2016). "Updated: ShowBuzzDaily's Top 150 Wednesday Cable Originals & Network Finals: 8.3.2016". ShowBuzzDaily. Retrieved August 4, 2016.
  57. ^ Metcalf, Mitch (August 11, 2016). "Updated: ShowBuzzDaily's Top 150 Wednesday Cable Originals & Network Finals: 8.10.2016". ShowBuzzDaily. Retrieved August 11, 2016.
  58. ^ Metcalf, Mitch (August 18, 2016). "Updated: ShowBuzzDaily's Top 150 Wednesday Cable Originals & Network Finals: 8.17.2016". ShowBuzzDaily. Retrieved August 18, 2016.
  59. ^ Metcalf, Mitch (August 25, 2016). "Updated: ShowBuzzDaily's Top 150 Wednesday Cable Originals & Network Finals: 8.24.2016". ShowBuzzDaily. Retrieved August 25, 2016.
  60. ^ Metcalf, Mitch (September 1, 2016). "Updated: ShowBuzzDaily's Top 150 Wednesday Cable Originals & Network Finals: 8.31.2016". ShowBuzzDaily. Retrieved September 1, 2016.
  61. ^ Metcalf, Mitch (September 8, 2016). "Updated with Broadcast: ShowBuzzDaily's Top 150 Wednesday Cable Originals & Network Finals: 9.7.2016". ShowBuzzDaily. Retrieved September 8, 2016.
  62. ^ Metcalf, Mitch (September 15, 2016). "Updated: ShowBuzzDaily's Top 150 Wednesday Cable Originals & Network Finals: 9.14.2016". ShowBuzzDaily. Retrieved September 15, 2016.
  63. ^ Metcalf, Mitch (September 22, 2016). "Updated: ShowBuzzDaily's Top 150 Wednesday Cable Originals & Network Finals: 9.21.2016". ShowBuzzDaily. Retrieved September 22, 2016.
  64. ^ Metcalf, Mitch (September 29, 2016). "Updated: ShowBuzzDaily's Top 150 Wednesday Cable Originals & Network Finals: 9.28.2016". ShowBuzzDaily. Retrieved September 29, 2016.
  65. ^ Metcalf, Mitch (October 6, 2016). "ShowbuzzDaily's Top 100 Wednesday Cable Originals & Network Finals: 10.5.2016". ShowbuzzDaily. Retrieved October 7, 2016.
  66. ^ Metcalf, Mitch (October 13, 2016). "Updated: ShowBuzzDaily's Top 150 Wednesday Cable Originals & Network Finals: 10.12.2016". ShowBuzzDaily. Retrieved October 13, 2016.
  67. ^ Metcalf, Mitch (October 20, 2016). "Updated: ShowBuzzDaily's Top 150 Wednesday Cable Originals & Network Finals: 10.19.2016". ShowBuzzDaily. Retrieved October 20, 2016.
  68. ^ Metcalf, Mitch (October 27, 2016). "Updated: ShowBuzzDaily's Top 150 Wednesday Cable Originals & Network Finals: 10.26.2016". ShowBuzzDaily. Retrieved October 27, 2016.
  69. ^ Metcalf, Mitch (November 3, 2016). "Updated: ShowBuzzDaily's Top 150 Wednesday Cable Originals & Network Finals: 11.2.2016". ShowBuzzDaily. Retrieved November 3, 2016.
  70. ^ Metcalf, Mitch (November 10, 2016). "UPDATED: SHOWBUZZDAILY's Top 150 Wednesday Cable Originals & Network Finals: 11.9.2016". Showbuzz Daily. Retrieved November 10, 2016.
  71. ^ Metcalf, Mitch (November 17, 2016). "UPDATED: SHOWBUZZDAILY's Top 150 Wednesday Cable Originals & Network Finals: 11.16.2016". Showbuzz Daily. Retrieved November 17, 2016.
  72. ^ Metcalf, Mitch (March 1, 2017). "UPDATED: SHOWBUZZDAILY's Top 150 Tuesday Cable Originals & Network Finals: 2.28.2017". Showbuzz Daily. Retrieved March 1, 2017.
  73. ^ Metcalf, Mitch (March 8, 2017). "UPDATED: SHOWBUZZDAILY's Top 150 Tuesday Cable Originals & Network Finals: 3.7.2017". Showbuzz Daily. Retrieved March 8, 2017.
  74. ^ Metcalf, Mitch (March 16, 2017). "UPDATED: SHOWBUZZDAILY's Top 150 Tuesday Cable Originals & Network Finals: 3.14.2017". Showbuzz Daily. Retrieved March 16, 2017.
  75. ^ Metcalf, Mitch (March 22, 2017). "UPDATED: SHOWBUZZDAILY's Top 150 Tuesday Cable Originals & Network Finals: 3.21.2017". Showbuzz Daily. Retrieved March 22, 2017.
  76. ^ Metcalf, Mitch (March 29, 2017). "UPDATED: SHOWBUZZDAILY's Top 150 Tuesday Cable Originals & Network Finals: 3.28.2017". Showbuzz Daily. Retrieved March 29, 2017.
  77. ^ a b Metcalf, Mitch (April 5, 2017). "Updated: ShowBuzzDaily's Top 150 Tuesday Cable Originals & Network Finals: 4.4.2017". Showbuzz Daily. Retrieved April 5, 2017.
  78. ^ Metcalf, Mitch (April 12, 2017). "Updated: ShowBuzzDaily's Top 150 Tuesday Cable Originals & Network Finals: 4.11.2017". Showbuzz Daily. Retrieved April 12, 2017.
  79. ^ Metcalf, Mitch (April 19, 2017). "Updated: ShowBuzzDaily's Top 150 Tuesday Cable Originals & Network Finals: 4.18.2017". Showbuzz Daily. Retrieved April 19, 2017.
  80. ^ Metcalf, Mitch (April 26, 2017). "Updated: ShowBuzzDaily's Top 150 Tuesday Cable Originals & Network Finals: 4.25.2017". Showbuzz Daily. Retrieved April 26, 2017.
  81. ^ Metcalf, Mitch (May 3, 2017). "Updated: ShowBuzzDaily's Top 150 Tuesday Cable Originals & Network Finals: 5.2.2017". Showbuzz Daily. Retrieved May 3, 2017.
  82. ^ Metcalf, Mitch (May 10, 2017). "Updated: ShowBuzzDaily's Top 150 Tuesday Cable Originals & Network Finals: 5.9.2017". Showbuzz Daily. Retrieved May 10, 2017.
  83. ^ Metcalf, Mitch (May 17, 2017). "Updated: ShowBuzzDaily's Top 150 Tuesday Cable Originals & Network Finals: 5.16.2017". Showbuzz Daily. Retrieved May 17, 2017.
  84. ^ Metcalf, Mitch (May 24, 2017). "Updated: ShowBuzzDaily's Top 150 Tuesday Cable Originals & Network Finals: 5.23.2017". Showbuzz Daily. Retrieved May 24, 2017.
  85. ^ Metcalf, Mitch (June 1, 2017). "Updated: ShowBuzzDaily's Top 150 Wednesday Cable Originals & Network Finals: 5.31.2017". Showbuzz Daily. Retrieved June 1, 2017.
  86. ^ Metcalf, Mitch (June 8, 2017). "Updated: ShowBuzzDaily's Top 150 Wednesday Cable Originals & Network Finals: 6.7.2017". Showbuzz Daily. Retrieved June 8, 2017.
  87. ^ Metcalf, Mitch (June 15, 2017). "Updated: ShowBuzzDaily's Top 150 Wednesday Cable Originals & Network Finals: 6.14.2017". Showbuzz Daily. Retrieved June 15, 2017.
  88. ^ Metcalf, Mitch (June 22, 2017). "Updated: ShowBuzzDaily's Top 150 Wednesday Cable Originals & Network Finals: 6.21.2017". Showbuzz Daily. Retrieved June 22, 2017.
  89. ^ Metcalf, Mitch (June 29, 2017). "Updated: ShowBuzzDaily's Top 150 Wednesday Cable Originals & Network Finals: 6.28.2017". Showbuzz Daily. Retrieved June 29, 2017.
  90. ^ Metcalf, Mitch (July 7, 2017). "Updated: ShowBuzzDaily's Top 150 Wednesday Cable Originals & Network Finals: 7.5.2017". Showbuzz Daily. Retrieved July 7, 2017.
  91. ^ Metcalf, Mitch (July 13, 2017). "Updated: ShowBuzzDaily's Top 150 Wednesday Cable Originals & Network Finals: 7.12.2017". Showbuzz Daily. Retrieved July 13, 2017.
  92. ^ Metcalf, Mitch (July 20, 2017). "Updated: ShowBuzzDaily's Top 150 Wednesday Cable Originals & Network Finals: 7.19.2017". Showbuzz Daily. Retrieved July 20, 2017.
  93. ^ Metcalf, Mitch (July 27, 2017). "Updated: ShowBuzzDaily's Top 150 Wednesday Cable Originals & Network Finals: 7.26.2017". Showbuzz Daily. Retrieved July 27, 2017.
  94. ^ Metcalf, Mitch (August 3, 2017). "Updated: ShowBuzzDaily's Top 150 Wednesday Cable Originals & Network Finals: 8.2.2017". Showbuzz Daily. Retrieved August 3, 2017.
  95. ^ Metcalf, Mitch (August 10, 2017). "Updated: ShowBuzzDaily's Top 150 Wednesday Cable Originals & Network Finals: 8.9.2017". Showbuzz Daily. Retrieved August 10, 2017.
  96. ^ Metcalf, Mitch (August 17, 2017). "Updated: ShowBuzzDaily's Top 150 Wednesday Cable Originals & Network Finals: 8.16.2017". Showbuzz Daily. Retrieved August 17, 2017.
  97. ^ Metcalf, Mitch (August 24, 2017). "Updated: ShowBuzzDaily's Top 150 Wednesday Cable Originals & Network Finals: 8.23.2017". Showbuzz Daily. Retrieved August 24, 2017.
  98. ^ Metcalf, Mitch (August 31, 2017). "Updated: ShowBuzzDaily's Top 150 Wednesday Cable Originals & Network Finals: 8.30.2017". Showbuzz Daily. Retrieved August 31, 2017.
  99. ^ Metcalf, Mitch (September 7, 2017). "Updated: ShowBuzzDaily's Top 150 Wednesday Cable Originals & Network Finals: 9.6.2017". Showbuzz Daily. Retrieved September 7, 2017.
  100. ^ Metcalf, Mitch (September 15, 2017). "Updated: ShowBuzzDaily's Top 150 Wednesday Cable Originals & Network Finals: 9.13.2017". Showbuzz Daily. Retrieved September 15, 2017.
  101. ^ Metcalf, Mitch (March 22, 2018). "Updated: ShowBuzzDaily's Top 150 Wednesday Cable Originals & Network Finals: 3.21.2018". Showbuzz Daily. Retrieved March 22, 2018.
  102. ^ Metcalf, Mitch (March 29, 2018). "Updated: ShowBuzzDaily's Top 150 Wednesday Cable Originals & Network Finals: 3.28.2018". Showbuzz Daily. Retrieved March 29, 2018.
  103. ^ Metcalf, Mitch (April 5, 2018). "Updated: ShowBuzzDaily's Top 150 Wednesday Cable Originals & Network Finals: 4.4.2018". Showbuzz Daily. Retrieved April 5, 2018.
  104. ^ Metcalf, Mitch (April 12, 2018). "Updated: ShowBuzzDaily's Top 150 Wednesday Cable Originals & Network Finals: 4.11.2018". Showbuzz Daily. Retrieved April 12, 2018.
  105. ^ Metcalf, Mitch (April 19, 2018). "Updated: ShowBuzzDaily's Top 150 Wednesday Cable Originals & Network Finals: 4.18.2018". Showbuzz Daily. Retrieved April 19, 2018.
  106. ^ Metcalf, Mitch (April 26, 2018). "Updated: ShowBuzzDaily's Top 150 Wednesday Cable Originals & Network Finals: 4.25.2018". Showbuzz Daily. Retrieved April 26, 2018.
  107. ^ Metcalf, Mitch (May 3, 2018). "Updated: ShowBuzzDaily's Top 150 Wednesday Cable Originals & Network Finals: 5.2.2018". Showbuzz Daily. Retrieved May 3, 2018.
  108. ^ Metcalf, Mitch (May 10, 2018). "Updated: ShowBuzzDaily's Top 150 Wednesday Cable Originals & Network Finals: 5.9.2018". Showbuzz Daily. Retrieved May 10, 2018.
  109. ^ Metcalf, Mitch (May 17, 2018). "Updated: ShowBuzzDaily's Top 150 Wednesday Cable Originals & Network Finals: 5.16.2018". Showbuzz Daily. Retrieved May 17, 2018.
  110. ^ Metcalf, Mitch (May 24, 2018). "Updated: ShowBuzzDaily's Top 150 Wednesday Cable Originals & Network Finals: 5.23.2018". Showbuzz Daily. Retrieved May 24, 2018.
  111. ^ Metcalf, Mitch (May 31, 2018). "Updated: ShowBuzzDaily's Top 150 Wednesday Cable Originals & Network Finals: 5.30.2018". Showbuzz Daily. Retrieved May 31, 2018.
  112. ^ Metcalf, Mitch (June 7, 2018). "Updated: ShowBuzzDaily's Top 150 Wednesday Cable Originals & Network Finals: 6.6.2018". Showbuzz Daily. Retrieved June 7, 2018.
  113. ^ Metcalf, Mitch (June 14, 2018). "Updated: ShowBuzzDaily's Top 150 Wednesday Cable Originals & Network Finals: 6.13.2018". Showbuzz Daily. Retrieved June 14, 2018.
  114. ^ Metcalf, Mitch (June 21, 2018). "Updated: ShowBuzzDaily's Top 150 Wednesday Cable Originals & Network Finals: 6.20.2018". Showbuzz Daily. Retrieved June 21, 2018.
  115. ^ Metcalf, Mitch (June 28, 2018). "Updated: ShowBuzzDaily's Top 150 Wednesday Cable Originals & Network Finals: 6.27.2018". Showbuzz Daily. Retrieved June 28, 2018.
  116. ^ Metcalf, Mitch (July 12, 2018). "Updated: ShowBuzzDaily's Top 150 Wednesday Cable Originals & Network Finals: 7.11.2018". Showbuzz Daily. Retrieved July 12, 2018.
  117. ^ Metcalf, Mitch (July 19, 2018). "Updated: ShowBuzzDaily's Top 150 Wednesday Cable Originals & Network Finals: 7.18.2018". Showbuzz Daily. Retrieved July 19, 2018.
  118. ^ Metcalf, Mitch (July 26, 2018). "Updated: ShowBuzzDaily's Top 150 Wednesday Cable Originals & Network Finals: 7.25.2018". Showbuzz Daily. Retrieved July 26, 2018.
  119. ^ Metcalf, Mitch (April 5, 2019). "Updated: ShowBuzzDaily's Top 150 Thursday Cable Originals & Network Finals: 4.4.2019". Showbuzz Daily. Retrieved April 5, 2019.
  120. ^ Metcalf, Mitch (April 12, 2019). "Updated: ShowBuzzDaily's Top 150 Thursday Cable Originals & Network Finals: 4.11.2019". Showbuzz Daily. Retrieved April 12, 2019.
  121. ^ Metcalf, Mitch (April 19, 2019). "Updated: ShowBuzzDaily's Top 150 Thursday Cable Originals & Network Finals: 4.18.2019". Showbuzz Daily. Retrieved April 19, 2019.
  122. ^ Metcalf, Mitch (April 26, 2019). "Updated: ShowBuzzDaily's Top 150 Thursday Cable Originals & Network Finals: 4.25.2019". Showbuzz Daily. Retrieved April 26, 2019.
  123. ^ Metcalf, Mitch (May 3, 2019). "Updated: ShowBuzzDaily's Top 150 Thursday Cable Originals & Network Finals: 5.2.2019". Showbuzz Daily. Retrieved May 3, 2019.
  124. ^ Metcalf, Mitch (May 10, 2019). "Updated: ShowBuzzDaily's Top 150 Thursday Cable Originals & Network Finals: 5.9.2019". Showbuzz Daily. Retrieved May 10, 2019.
  125. ^ Metcalf, Mitch (May 17, 2019). "Updated: ShowBuzzDaily's Top 150 Thursday Cable Originals & Network Finals: 5.16.2019". Showbuzz Daily. Retrieved May 17, 2019.
  126. ^ Metcalf, Mitch (May 24, 2019). "Updated: ShowBuzzDaily's Top 150 Thursday Cable Originals & Network Finals: 5.23.2019". Showbuzz Daily. Retrieved May 24, 2019.
  127. ^ Metcalf, Mitch (July 15, 2019). "Updated: ShowBuzzDaily's Top 150 Thursday Cable Originals & Network Finals: 7.11.2019". Showbuzz Daily. Retrieved July 15, 2019.
  128. ^ Metcalf, Mitch (July 19, 2019). "Updated: ShowBuzzDaily's Top 150 Thursday Cable Originals & Network Finals: 7.18.2019". Showbuzz Daily. Retrieved July 19, 2019.
  129. ^ a b Metcalf, Mitch (July 26, 2019). "Updated: ShowBuzzDaily's Top 150 Thursday Cable Originals & Network Finals: 7.25.2019". Showbuzz Daily. Retrieved July 26, 2019.
  130. ^ a b Metcalf, Mitch (August 2, 2019). "Updated: ShowBuzzDaily's Top 150 Thursday Cable Originals & Network Finals: 8.1.2019". Showbuzz Daily. Retrieved August 2, 2019.
  131. ^ a b Metcalf, Mitch (August 9, 2019). "Updated: ShowBuzzDaily's Top 150 Thursday Cable Originals & Network Finals: 8.8.2019". Showbuzz Daily. Retrieved August 9, 2019.
  132. ^ a b Metcalf, Mitch (August 16, 2019). "Updated: ShowBuzzDaily's Top 150 Thursday Cable Originals & Network Finals: 8.15.2019". Showbuzz Daily. Retrieved August 16, 2019.

External links[edit]